ACA471 CYOW-CYYZ

Flight info

Callsign ACA471
Flight time 0h 48m
Altitude 30000
Route TUKIR RAGID6
Aircraft A321/M-SDE3FGHIRWY/LB1

Departure

Time 2026-05-07 02:22
Airport Ottawa Macdonald-Cartier International Airport (CYOW)

Arrival

Time 2026-05-07 03:10
Airport Toronto Pearson International Airport (CYYZ)
Time Latitude Longitude Altitude Speed Heading
2026-05-07 01:49 45.32151 -75.66791 383 ft 0 kts 36°
2026-05-07 02:11 45.32143 -75.66799 383 ft 2 kts 36°
2026-05-07 02:11 45.32131 -75.66811 383 ft 2 kts 36°
2026-05-07 02:12 45.32119 -75.66824 383 ft 2 kts 36°
2026-05-07 02:12 45.32106 -75.66837 383 ft 2 kts 36°
2026-05-07 02:12 45.32094 -75.66849 383 ft 2 kts 36°
2026-05-07 02:12 45.32082 -75.66862 383 ft 1 kts 36°
2026-05-07 02:13 45.32081 -75.66863 383 ft 0 kts 36°
2026-05-07 02:13 45.32082 -75.66863 383 ft 0 kts 36°
2026-05-07 02:15 45.32083 -75.66861 383 ft 1 kts 39°
2026-05-07 02:15 45.32085 -75.66851 383 ft 1 kts 99°
2026-05-07 02:15 45.32073 -75.66833 383 ft 3 kts 138°
2026-05-07 02:16 45.32044 -75.66786 383 ft 9 kts 127°
2026-05-07 02:16 45.31993 -75.66690 383 ft 14 kts 127°
2026-05-07 02:16 45.31930 -75.66573 383 ft 15 kts 126°
2026-05-07 02:16 45.31876 -75.66460 383 ft 8 kts 109°
2026-05-07 02:17 45.31896 -75.66379 383 ft 9 kts 57°
2026-05-07 02:17 45.31936 -75.66290 383 ft 11 kts 57°
2026-05-07 02:17 45.31981 -75.66190 383 ft 12 kts 57°
2026-05-07 02:17 45.32031 -75.66077 383 ft 13 kts 57°
2026-05-07 02:18 45.32084 -75.65958 383 ft 14 kts 57°
2026-05-07 02:18 45.32140 -75.65829 383 ft 15 kts 58°
2026-05-07 02:18 45.32201 -75.65697 383 ft 16 kts 57°
2026-05-07 02:18 45.32264 -75.65557 383 ft 17 kts 57°
2026-05-07 02:19 45.32328 -75.65414 383 ft 17 kts 57°
2026-05-07 02:19 45.32394 -75.65266 383 ft 17 kts 57°
2026-05-07 02:19 45.32462 -75.65115 383 ft 18 kts 57°
2026-05-07 02:19 45.32531 -75.64961 383 ft 18 kts 57°
2026-05-07 02:20 45.32584 -75.64839 383 ft 9 kts 60°
2026-05-07 02:20 45.32588 -75.64754 383 ft 9 kts 101°
2026-05-07 02:20 45.32573 -75.64654 383 ft 11 kts 102°
2026-05-07 02:20 45.32531 -75.64572 383 ft 10 kts 146°
2026-05-07 02:21 45.32486 -75.64569 383 ft 6 kts 223°
2026-05-07 02:21 45.32449 -75.64636 383 ft 15 kts 235°
2026-05-07 02:21 45.32230 -75.65123 383 ft 105 kts 237°
2026-05-07 02:21 45.31692 -75.66324 547 ft 169 kts 236°
2026-05-07 02:22 45.31089 -75.67713 1598 ft 170 kts 237°
2026-05-07 02:22 45.30514 -75.69115 2561 ft 167 kts 237°
2026-05-07 02:22 45.29922 -75.70601 2977 ft 181 kts 238°
2026-05-07 02:22 45.29272 -75.72232 3350 ft 197 kts 238°
2026-05-07 02:23 45.28573 -75.73993 3702 ft 216 kts 238°
2026-05-07 02:23 45.27806 -75.75916 4123 ft 235 kts 238°
2026-05-07 02:23 45.26990 -75.78022 4636 ft 251 kts 243°
2026-05-07 02:23 45.26644 -75.80456 5365 ft 261 kts 265°
2026-05-07 02:24 45.26637 -75.83041 6225 ft 261 kts 264°
2026-05-07 02:24 45.26600 -75.85615 7004 ft 263 kts 263°
2026-05-07 02:24 45.26535 -75.88183 7761 ft 266 kts 262°
2026-05-07 02:24 45.26454 -75.90799 8518 ft 268 kts 262°
2026-05-07 02:25 45.26363 -75.93430 9252 ft 270 kts 261°
2026-05-07 02:25 45.26266 -75.96073 9962 ft 272 kts 261°
2026-05-07 02:25 45.26162 -75.98765 10551 ft 279 kts 261°
2026-05-07 02:25 45.26044 -76.01618 10864 ft 295 kts 261°
2026-05-07 02:26 45.25922 -76.04575 11162 ft 312 kts 261°
2026-05-07 02:26 45.25793 -76.07724 11469 ft 327 kts 261°
2026-05-07 02:26 45.25663 -76.10970 12014 ft 334 kts 261°
2026-05-07 02:26 45.25531 -76.14274 12724 ft 335 kts 261°
2026-05-07 02:27 45.25397 -76.17590 13390 ft 337 kts 260°
2026-05-07 02:27 45.25206 -76.20872 14007 ft 336 kts 254°
2026-05-07 02:27 45.24542 -76.24023 14630 ft 329 kts 240°
2026-05-07 02:27 45.23397 -76.26736 15235 ft 324 kts 228°
2026-05-07 02:28 45.21952 -76.29195 15853 ft 324 kts 225°
2026-05-07 02:28 45.20474 -76.31624 16440 ft 326 kts 225°
2026-05-07 02:28 45.19004 -76.34036 17016 ft 328 kts 225°
2026-05-07 02:28 45.17515 -76.36480 17582 ft 329 kts 225°
2026-05-07 02:29 45.16035 -76.38910 18131 ft 331 kts 225°
2026-05-07 02:29 45.14518 -76.41400 18679 ft 332 kts 224°
2026-05-07 02:29 45.13017 -76.43864 19206 ft 333 kts 224°
2026-05-07 02:29 45.11510 -76.46336 19714 ft 335 kts 224°
2026-05-07 02:30 45.09983 -76.48832 20159 ft 338 kts 224°
2026-05-07 02:30 45.08443 -76.51347 20470 ft 344 kts 225°
2026-05-07 02:30 45.06873 -76.53915 20903 ft 346 kts 225°
2026-05-07 02:30 45.05293 -76.56496 21378 ft 348 kts 225°
2026-05-07 02:31 45.03720 -76.59067 21824 ft 349 kts 225°
2026-05-07 02:31 45.02135 -76.61656 22249 ft 351 kts 225°
2026-05-07 02:31 45.00537 -76.64262 22662 ft 353 kts 225°
2026-05-07 02:31 44.98957 -76.66840 23066 ft 355 kts 225°
2026-05-07 02:32 44.97329 -76.69504 23477 ft 357 kts 225°
2026-05-07 02:32 44.95712 -76.72144 23854 ft 359 kts 225°
2026-05-07 02:32 44.94072 -76.74819 24224 ft 361 kts 225°
2026-05-07 02:32 44.92449 -76.77460 24607 ft 363 kts 225°
2026-05-07 02:33 44.90781 -76.80171 24995 ft 364 kts 225°
2026-05-07 02:33 44.89133 -76.82844 25365 ft 366 kts 225°
2026-05-07 02:33 44.87456 -76.85558 25739 ft 368 kts 225°
2026-05-07 02:33 44.85788 -76.88277 26102 ft 370 kts 225°
2026-05-07 02:34 44.84116 -76.91011 26475 ft 371 kts 225°
2026-05-07 02:34 44.82584 -76.93935 26922 ft 375 kts 233°
2026-05-07 02:34 44.81280 -76.97100 27463 ft 373 kts 235°
2026-05-07 02:34 44.80042 -77.00230 27959 ft 370 kts 235°
2026-05-07 02:35 44.78788 -77.03384 28378 ft 369 kts 235°
2026-05-07 02:35 44.77527 -77.06529 28765 ft 368 kts 235°
2026-05-07 02:35 44.76259 -77.09667 29150 ft 368 kts 234°
2026-05-07 02:35 44.75001 -77.12763 29525 ft 367 kts 234°
2026-05-07 02:36 44.73734 -77.15868 29849 ft 367 kts 234°
2026-05-07 02:36 44.72461 -77.18978 29907 ft 370 kts 234°
2026-05-07 02:36 44.69844 -77.25333 29919 ft 378 kts 234°
2026-05-07 02:37 44.67218 -77.31705 29923 ft 378 kts 234°
2026-05-07 02:37 44.64590 -77.38064 29924 ft 378 kts 234°
2026-05-07 02:38 44.61959 -77.44415 29927 ft 378 kts 234°
2026-05-07 02:38 44.59318 -77.50773 29926 ft 378 kts 234°
2026-05-07 02:39 44.56666 -77.57139 29927 ft 378 kts 234°
2026-05-07 02:39 44.54026 -77.63470 29927 ft 378 kts 234°
2026-05-07 02:40 44.51378 -77.69818 29927 ft 377 kts 233°
2026-05-07 02:40 44.48866 -77.75834 29927 ft 377 kts 233°
2026-05-07 02:41 44.46247 -77.82080 29928 ft 377 kts 234°
2026-05-07 02:41 44.43601 -77.88371 29930 ft 377 kts 233°
2026-05-07 02:42 44.40938 -77.94682 29931 ft 376 kts 233°
2026-05-07 02:42 44.38291 -78.00944 29935 ft 376 kts 233°
2026-05-07 02:43 44.35642 -78.07200 29738 ft 368 kts 234°
2026-05-07 02:43 44.34353 -78.10244 29484 ft 360 kts 234°
2026-05-07 02:43 44.33089 -78.13219 29236 ft 359 kts 233°
2026-05-07 02:44 44.31817 -78.16208 28983 ft 357 kts 233°
2026-05-07 02:44 44.30553 -78.19173 28732 ft 355 kts 234°
2026-05-07 02:44 44.29287 -78.22139 28429 ft 356 kts 234°
2026-05-07 02:44 44.28025 -78.25098 28034 ft 357 kts 234°
2026-05-07 02:45 44.26767 -78.28040 27451 ft 359 kts 234°
2026-05-07 02:45 44.25481 -78.31044 26786 ft 359 kts 234°
2026-05-07 02:45 44.24205 -78.34023 26103 ft 360 kts 234°
2026-05-07 02:45 44.22937 -78.36983 25419 ft 361 kts 235°
2026-05-07 02:46 44.21638 -78.40012 24702 ft 362 kts 235°
2026-05-07 02:46 44.20355 -78.43003 24140 ft 359 kts 235°
2026-05-07 02:46 44.19096 -78.45940 23682 ft 353 kts 235°
2026-05-07 02:46 44.17840 -78.48864 23194 ft 349 kts 235°
2026-05-07 02:47 44.16611 -78.51721 22714 ft 345 kts 236°
2026-05-07 02:47 44.15391 -78.54554 22235 ft 342 kts 236°
2026-05-07 02:47 44.14178 -78.57364 21757 ft 338 kts 236°
2026-05-07 02:47 44.12966 -78.60171 21279 ft 335 kts 236°
2026-05-07 02:48 44.11775 -78.62927 20813 ft 332 kts 236°
2026-05-07 02:48 44.10590 -78.65668 20345 ft 329 kts 235°
2026-05-07 02:48 44.09429 -78.68360 19880 ft 326 kts 236°
2026-05-07 02:48 44.08262 -78.71061 19416 ft 323 kts 236°
2026-05-07 02:49 44.07116 -78.73708 18958 ft 321 kts 236°
2026-05-07 02:49 44.05962 -78.76368 18492 ft 318 kts 236°
2026-05-07 02:49 44.04834 -78.78962 18039 ft 316 kts 236°
2026-05-07 02:49 44.03694 -78.81559 17585 ft 313 kts 235°
2026-05-07 02:50 44.02537 -78.84099 17128 ft 311 kts 235°
2026-05-07 02:50 44.01385 -78.86613 16673 ft 309 kts 235°
2026-05-07 02:50 44.00230 -78.89134 16213 ft 307 kts 235°
2026-05-07 02:50 43.99091 -78.91618 15762 ft 305 kts 235°
2026-05-07 02:51 43.97970 -78.94067 15512 ft 295 kts 235°
2026-05-07 02:51 43.96906 -78.96390 15405 ft 277 kts 235°
2026-05-07 02:51 43.95897 -78.98594 15269 ft 261 kts 235°
2026-05-07 02:51 43.94945 -79.00667 15160 ft 250 kts 235°
2026-05-07 02:52 43.94028 -79.02663 15063 ft 243 kts 235°
2026-05-07 02:52 43.93128 -79.04620 14991 ft 246 kts 235°
2026-05-07 02:52 43.92172 -79.06692 14991 ft 261 kts 235°
2026-05-07 02:52 43.91200 -79.08807 14964 ft 262 kts 235°
2026-05-07 02:53 43.90209 -79.10960 14519 ft 264 kts 235°
2026-05-07 02:53 43.89241 -79.13050 14138 ft 258 kts 235°
2026-05-07 02:53 43.88280 -79.15113 13776 ft 254 kts 235°
2026-05-07 02:53 43.87330 -79.17158 13416 ft 250 kts 235°
2026-05-07 02:54 43.86405 -79.19154 13068 ft 246 kts 235°
2026-05-07 02:54 43.85490 -79.21129 12728 ft 245 kts 235°
2026-05-07 02:54 43.84571 -79.23113 12393 ft 244 kts 235°
2026-05-07 02:54 43.83681 -79.25034 12075 ft 243 kts 235°
2026-05-07 02:55 43.82783 -79.26971 11759 ft 242 kts 235°
2026-05-07 02:55 43.81900 -79.28878 11446 ft 241 kts 235°
2026-05-07 02:55 43.81007 -79.30804 11131 ft 240 kts 235°
2026-05-07 02:55 43.80118 -79.32719 10820 ft 240 kts 235°
2026-05-07 02:56 43.79209 -79.34607 10505 ft 238 kts 231°
2026-05-07 02:56 43.78166 -79.36232 10203 ft 237 kts 222°
2026-05-07 02:56 43.76910 -79.37656 9894 ft 236 kts 216°
2026-05-07 02:56 43.75607 -79.38930 9596 ft 235 kts 214°
2026-05-07 02:57 43.74309 -79.40186 9300 ft 234 kts 214°
2026-05-07 02:57 43.72995 -79.41460 9000 ft 234 kts 214°
2026-05-07 02:57 43.71700 -79.42718 8705 ft 233 kts 214°
2026-05-07 02:57 43.70407 -79.43974 8412 ft 233 kts 214°
2026-05-07 02:58 43.69132 -79.45211 8159 ft 230 kts 214°
2026-05-07 02:58 43.67922 -79.46388 8138 ft 216 kts 214°
2026-05-07 02:58 43.66744 -79.47531 8088 ft 215 kts 213°
2026-05-07 02:58 43.65529 -79.48707 8020 ft 215 kts 213°
2026-05-07 02:59 43.64336 -79.49854 7993 ft 215 kts 212°
2026-05-07 02:59 43.63186 -79.50947 7995 ft 216 kts 212°
2026-05-07 02:59 43.61934 -79.52135 7996 ft 216 kts 212°
2026-05-07 02:59 43.60724 -79.53285 7996 ft 217 kts 212°
2026-05-07 03:00 43.59519 -79.54572 7817 ft 222 kts 218°
2026-05-07 03:00 43.58448 -79.56021 7450 ft 225 kts 222°
2026-05-07 03:00 43.57369 -79.57600 7072 ft 227 kts 222°
2026-05-07 03:00 43.56292 -79.59177 6698 ft 229 kts 222°
2026-05-07 03:01 43.55200 -79.60767 6323 ft 231 kts 222°
2026-05-07 03:01 43.54090 -79.62381 5945 ft 234 kts 222°
2026-05-07 03:01 43.52960 -79.63990 5588 ft 235 kts 230°
2026-05-07 03:01 43.51830 -79.65601 5219 ft 236 kts 231°
2026-05-07 03:02 43.50727 -79.67248 4850 ft 238 kts 231°
2026-05-07 03:02 43.49617 -79.68893 4482 ft 239 kts 230°
2026-05-07 03:02 43.48549 -79.70456 4131 ft 241 kts 230°
2026-05-07 03:02 43.47360 -79.72186 3744 ft 242 kts 229°
2026-05-07 03:03 43.46227 -79.73904 3366 ft 246 kts 237°
2026-05-07 03:03 43.45600 -79.76111 3034 ft 247 kts 268°
2026-05-07 03:03 43.45878 -79.78296 2991 ft 227 kts 299°
2026-05-07 03:03 43.46862 -79.79895 2996 ft 213 kts 319°
2026-05-07 03:04 43.47971 -79.81223 2991 ft 214 kts 322°
2026-05-07 03:04 43.49299 -79.82092 2980 ft 213 kts 353°
2026-05-07 03:04 43.50751 -79.81810 3001 ft 216 kts 19°
2026-05-07 03:04 43.52149 -79.81015 2991 ft 216 kts 24°
2026-05-07 03:05 43.53424 -79.79904 2987 ft 214 kts 37°
2026-05-07 03:05 43.54494 -79.78584 2978 ft 201 kts 40°
2026-05-07 03:05 43.55463 -79.77267 3007 ft 186 kts 42°
2026-05-07 03:05 43.56297 -79.76074 2970 ft 167 kts 43°
2026-05-07 03:06 43.57062 -79.74966 2955 ft 156 kts 43°
2026-05-07 03:06 43.57817 -79.73872 2830 ft 158 kts 43°
2026-05-07 03:06 43.58555 -79.72795 2637 ft 151 kts 43°
2026-05-07 03:06 43.59247 -79.71783 2412 ft 144 kts 43°
2026-05-07 03:07 43.59930 -79.70789 2234 ft 145 kts 43°
2026-05-07 03:07 43.60589 -79.69828 2028 ft 137 kts 43°
2026-05-07 03:07 43.61227 -79.68899 1860 ft 136 kts 43°
2026-05-07 03:07 43.61867 -79.67969 1686 ft 137 kts 45°
2026-05-07 03:08 43.62535 -79.66991 1483 ft 144 kts 46°
2026-05-07 03:08 43.63197 -79.66013 1340 ft 144 kts 45°
2026-05-07 03:08 43.63857 -79.65044 1148 ft 143 kts 46°
2026-05-07 03:08 43.64522 -79.64086 964 ft 142 kts 45°
2026-05-07 03:09 43.65144 -79.63182 777 ft 141 kts 46°
2026-05-07 03:10 43.66923 -79.60627 546 ft 21 kts 28°
2026-05-07 03:10 43.67059 -79.60548 546 ft 20 kts 21°
2026-05-07 03:10 43.67131 -79.60508 546 ft 8 kts 21°
2026-05-07 03:10 43.67186 -79.60501 547 ft 8 kts 339°
2026-05-07 03:11 43.67229 -79.60548 549 ft 7 kts 316°
2026-05-07 03:11 43.67268 -79.60597 551 ft 7 kts 316°
2026-05-07 03:11 43.67303 -79.60642 552 ft 6 kts 316°
2026-05-07 03:11 43.67336 -79.60686 554 ft 6 kts 316°
2026-05-07 03:12 43.67371 -79.60731 555 ft 7 kts 317°
2026-05-07 03:12 43.67416 -79.60789 557 ft 9 kts 316°
2026-05-07 03:12 43.67443 -79.60867 559 ft 10 kts 256°
2026-05-07 03:12 43.67400 -79.60956 558 ft 12 kts 232°
2026-05-07 03:13 43.67346 -79.61056 558 ft 13 kts 233°
2026-05-07 03:13 43.67290 -79.61158 558 ft 14 kts 232°
2026-05-07 03:13 43.67271 -79.61249 557 ft 10 kts 297°
2026-05-07 03:13 43.67319 -79.61321 560 ft 10 kts 316°
2026-05-07 03:14 43.67371 -79.61388 561 ft 10 kts 317°
2026-05-07 03:14 43.67424 -79.61457 562 ft 10 kts 316°
2026-05-07 03:14 43.67538 -79.61606 564 ft 11 kts 317°
2026-05-07 03:15 43.67587 -79.61669 565 ft 5 kts 322°
2026-05-07 03:15 43.67626 -79.61673 566 ft 6 kts 27°
2026-05-07 03:15 43.67665 -79.61640 566 ft 7 kts 12°
2026-05-07 03:15 43.67709 -79.61659 567 ft 6 kts 345°
2026-05-07 03:16 43.67749 -79.61639 568 ft 6 kts 41°
2026-05-07 03:16 43.67779 -79.61600 568 ft 3 kts 45°
2026-05-07 03:16 43.67791 -79.61598 568 ft 2 kts 307°
2026-05-07 03:16 43.67800 -79.61614 569 ft 2 kts 315°
2026-05-07 03:17 43.67816 -79.61623 569 ft 3 kts 354°
2026-05-07 03:17 43.67841 -79.61628 569 ft 3 kts 355°
2026-05-07 03:17 43.67856 -79.61628 569 ft 0 kts 360°
2026-05-07 03:17 43.67860 -79.61628 569 ft 0 kts 360°